This demonstration page uses our WeatherBlox Daily Observations layout. Learn more.

Left ArrowRight Arrow

Hourly Observations for June 21, 2021

Temp ( °F °C ) Dew Point ( °F °C ) Humidity (%) Winds ( mph kmh ) Pressure ( in mb ) Visibility ( mi km ) Precip ( " mm )
12:59 am 00:59 Mostly Cloudy 76 24.4 70 21.1 82 82 SSW 8 13 29.84 1010 10 16 0.00 0.00
1:59 am 01:59 Cloudy 76 24.4 71 21.7 85 85 SSW 7 11 29.83 1010 9 14 0.00 0.00
2:59 am 02:59 Mostly Cloudy 76 24.4 71 21.7 85 85 S 9 15 29.80 1009 8 13 0.00 0.00
3:59 am 03:59 Mostly Cloudy 76 24.4 71 21.7 85 85 S 7 11 29.78 1009 8 13 0.00 0.00
4:59 am 04:59 Mostly Cloudy 76 24.4 72 22.2 88 88 S 6 9 29.77 1008 8 13 0.00 0.00
5:59 am 05:59 Mostly Cloudy with Mist and Fog 76 24.4 72 22.2 88 88 Calm 29.77 1008 6 10 0.00 0.00
6:59 am 06:59 Mostly Cloudy with Mist and Fog 77 25 73 22.8 88 88 NNE 7 11 29.78 1008 6 10 0.00 0.00
7:59 am 07:59 Cloudy with Mist and Fog 76 24.4 72 22.2 88 88 E 9 15 29.78 1009 5 8 0.00 0.00
8:01 am 08:01 Cloudy with Mist and Fog 76 24.4 72 22.2 88 88 E 8 13 29.78 1008 5 8 0.00 0.00
8:04 am 08:04 Cloudy with Mist and Fog 76 24.4 72 22.2 88 88 E 8 13 29.79 1009 5 8 0.00 0.00
8:21 am 08:21 Cloudy with Thunderstorms 76 24.4 72 22.2 88 88 E 7 11 29.80 1009 8 13 0.00 0.00
8:45 am 08:45 Cloudy 76 24.4 72 22.2 88 88 SSE 3 6 29.79 1009 7 11 0.00 0.00
8:59 am 08:59 Cloudy 76 24.4 72 22.2 88 88 ESE 3 6 29.78 1009 8 13 0.00 0.00
9:41 am 09:41 Mostly Cloudy 75 23.9 72 22.2 90 90 Calm 29.79 1009 10 16 0.00 0.00
9:59 am 09:59 Mostly Cloudy 76 24.4 72 22.2 88 88 Calm 29.78 1008 10 16 0.00 0.00
10:59 am 10:59 Mostly Sunny 79 26.1 73 22.8 82 82 W 8 13 29.77 1008 10 16 0.00 0.00
11:59 am 11:59 Mostly Sunny 82 27.8 73 22.8 74 74 W 7 11 29.77 1008 9 14 0.00 0.00
12:59 pm 12:59 Sunny 86 30 72 22.2 63 63 VRB 3 6 29.76 1008 10 16 0.00 0.00
1:59 pm 13:59 Mostly Cloudy 88 31 N/A N/A VRB 5 7 29.75 1007 10 16 0.00 0.00
2:59 pm 14:59 Mostly Cloudy 89 31.7 73 22.8 59 59 SSW 12 19 29.72 1007 10 16 0.00 0.00
3:59 pm 15:59 Mostly Cloudy 92 33.3 72 22.2 52 52 SW 8 13 29.71 1006 10 16 0.00 0.00
4:59 pm 16:59 Mostly Sunny 92 33.3 72 22.2 52 52 SW 13 20 29.71 1006 10 16 0.00 0.00
5:59 pm 17:59 Partly Cloudy 91 32.8 74 23.3 57 57 SSW 15 24 29.69 1005 10 16 0.00 0.00
6:59 pm 18:59 Mostly Sunny 90 32.2 63 17.2 41 41 SSW 9 15 29.70 1006 10 16 0.00 0.00
7:59 pm 19:59 Mostly Sunny 88 31.1 65 18.3 46 46 SW 10 17 29.71 1006 10 16 0.00 0.00
8:59 pm 20:59 Mostly Clear 86 30 61 16.1 43 43 SW 8 13 29.74 1007 10 16 0.00 0.00
9:59 pm 21:59 Clear 86 30 60 15.6 42 42 SW 8 13 29.75 1008 10 16 0.00 0.00
10:59 pm 22:59 Clear 85 29.4 73 22.8 68 68 SSW 10 17 29.76 1008 10 16 0.00 0.00
11:59 pm 23:59 Clear 85 29.4 69 20.6 59 59 SW 10 17 29.76 1008 10 16 0.00 0.00

Powered by AerisWeather